Etusivu
METAR-TAF:

METAR-TAF

Lentoasemat :

Salt Point, Louisiana, Yhdysvallat

Leveyspiiri: 29-33-44N, Pituuspiiri: 091-31-32W, korkeus merenpinnasta: 0 m

Tämänhetkinen sää

Tämä raportti tehtiin 32 minuuttia sitten, kello 05.59 UTC
tyyntä
Lämpötila 16°C
Kosteus 88%
Ilmanpaine 1015 hPa

METAR: KP92 050559Z AUTO 00000KT 16/14 A2997 RMK AO1 SLP148 60011 T01560144 10156 20150 402280150 50009

Aika: 01:31 (06:31 UTC)


TAF: puuttuu

Säähavainnot ja -ennusteet yli 4000 lentoasemalta (METAR- ja TAF-raportit).

Käytössä olevat sääasemat on merkitty karttaan keltaisilla ja punaisilla pisteillä.

Aseta hiiri pisteen päälle nähdäksesi sääaseman nimen.

Klikkaa sitten nähdäksesi säähavainnot ja -ennusteet.

Kartan vaihtaminen: klikkaa mustalla rastilla varustettuja vihreitä pisteitä, niin voit zoomata sisään; viivalla varustettua vihreää pistettä, niin voit zoomata ulos tai vihreitä nuolia, niin pääset viereisille kartoille.


METAR-TAF: